Regional Weather Roundup
Issued by NWS

Home | Current Version | Previous Version | Text Only | Print | Product List | Glossary On
Versions: 1 2 3 4 5 6 7 8 9 10 11 12 13 14 15 16 17 18 19 20 21 22 23 24 25 26 27 28 29 30 31 32 33 34 35 36 37 38 39 40 41 42 43 44 45 46 47 48 49 50
000
ASHW40 PHFO 200643
RWRHI

WEATHER ROUNDUP FOR HAWAII
NATIONAL WEATHER SERVICE HONOLULU HI
800 PM HST MON FEB 19 2018

THIS IS AN AUTOMATED REPORT THAT HAS NOT BEEN QUALITY CONTROLLED.

NOTE..."FAIR" INDICATES FEW OR NO CLOUDS BELOW 12,000 FEET WITH NO
SIGNIFICANT WEATHER AND/OR OBSTRUCTIONS TO VISIBILITY.

* - THESE SITES REPORT LIMITED FIELDS
# - BUOY DATA PROVIDED BY PACIFIC ISLANDS OCEAN OBSERVING SYSTEM.

HIZ001>004-200700-
KAUAI-NIIHAU-

CITY           SKY/WX    TMP DP  RH WIND       PRES   REMARKS
LIHUE APT      MOCLDY    68  65  90 NW5       29.97R
PORT ALLEN*      N/A     68 N/A N/A VRB6        N/A
POIPU*           N/A     68 N/A N/A N2          N/A
PRINCEVILLE*     N/A     70 N/A N/A SE2         N/A
KOKOLE POINT*  NOT AVBL
MOLOAA DAIRY*    N/A     66  64  94 CALM        N/A
WAIMEA HTS*      N/A     66  63  88 NW5         N/A
PUU OPAE*        N/A     61  59  94 NW1         N/A
PUU LUA*       NOT AVBL
MAKAHA RIDGE*    N/A     63  63 100 CALM        N/A
$$

HIZ005>011-200700-
OAHU-

CITY           SKY/WX    TMP DP  RH WIND       PRES   REMARKS
HONOLULU       PTCLDY    73  62  68 W3        29.94R
KALAELOA       CLEAR     71  64  78 W5        29.95R
KANEOHE MCB    CLEAR     68  65  90 CALM      29.92R
WHEELER FIELD  FAIR      67  64  87 NW3       29.97R
BELLOWS*         N/A    N/A N/A N/A W3          N/A
KAHUKU*          N/A    N/A N/A N/A E1          N/A
WHEELER*         N/A    N/A N/A N/A N3          N/A
WAIANAE HARBOR   N/A    N/A N/A N/A NE2         N/A
DILLINGHAM*    NOT AVBL
KAHUKU TRN*      N/A    N/A N/A N/A NW1         N/A
KAWAILOA*        N/A     66  61  82 E3          N/A
KII*             N/A     66  63  88 CALM        N/A
MAKUA RANGE*     N/A     63  55  77 NW3         N/A
OAHU FOREST NW   N/A     64  54  68 E1G10       N/A
SCHOFIELD BRK*   N/A     55  54  94 E1          N/A
SCHOFIELD S*   NOT AVBL
WAIANAE VLY*     N/A    N/A N/A N/A NW5         N/A
KUAOKALA*        N/A     66  63  88 NE6G12      N/A
HONOULIUULI*   NOT AVBL
MOKUOLOE IS*   NOT AVBL
PALEHUA*         N/A     63  59  88 N6G12       N/A
WAIAWA PHB*    NOT AVBL
$$

HIZ012>013-200700-
MOLOKAI-

CITY           SKY/WX    TMP DP  RH WIND       PRES   REMARKS
MOLOKAI AIRPT  PTCLDY    67  64  90 N8        29.96R
KALAUPAPA      NOT AVBL
MAKAPULAPAI*     N/A     64  61  88 SE5         N/A
MOLOKAI 1*       N/A     59  50  72 SE1         N/A
PUU ALII*        N/A     66  57  73 NE1         N/A
$$

HIZ016-200700-
KAHOOLAWE-

CITY           SKY/WX    TMP DP  RH WIND       PRES   REMARKS
KAHOOLAWE*     NOT AVBL
HAKIOAWA*        N/A     65  62  91 MISG      30.36R
HONOKANAIA*    NOT AVBL
KANELOA*         N/A     68  63  83 NE3G14    29.99R
KEALIALALO*    NOT AVBL
LUA MAKIKA*    NOT AVBL
$$

HIZ014>015-200700-
LANAI-

CITY           SKY/WX    TMP DP  RH WIND       PRES   REMARKS
LANAI CITY     FAIR      64  61  90 E7        29.99R
LANAI 1*         N/A     64  61  88 E10G16      N/A
$$

HIZ017>028-200700-
MAUI-

CITY           SKY/WX    TMP DP  RH WIND       PRES   REMARKS
KAHULUI        PTCLDY    68  65  90 E6        29.95R
KAPALUA-W MAUI NOT AVBL
HANA AIRPORT   CLEAR     63  32  31 CALM      29.99R
HANA*            N/A     66 N/A N/A SW3         N/A
HALEAKALA SUMM   N/A     37  30  75 SW10        N/A
MAALAEA BAY*     N/A     68 N/A N/A N8          N/A
HALEAKALA*     NOT AVBL
KAUPO GAP*     NOT AVBL
KULA 1*          N/A     48  36  61 E3          N/A
$$

HIZ023>026-200700-
BIG ISLAND OF HAWAII COAST AND LOWER SLOPES-

CITY           SKY/WX    TMP DP  RH WIND       PRES   REMARKS
KAILUA KONA    PTCLDY    75  60  59 CALM      29.92R
HILO           MOCLDY    69  65  86 SW5       29.95R
HONOKAA*         N/A     66 N/A N/A VRB1        N/A
KAWAIHAE MWT*    N/A     75 N/A N/A E3          N/A
KAWAIHAE*        N/A     75 N/A N/A SE1       29.91S
SOUTH POINT*     N/A     66 N/A N/A N7          N/A
UPOLU AIRPORT* NOT AVBL
KAMUELA*       MOCLDY    55  52  88 NE9       30.04R
HAKALAU*         N/A     45  41  87 SW3         N/A
KALOKO-HONOKO*   N/A    N/A N/A N/A VRB2      29.91S
PALI 2*          N/A     63  59  88 SW3         N/A
KEALAKOMO*       N/A     75  59  57 NE6G14      N/A
KAUPULEHU*       N/A     66  59  77 SE7         N/A
KAPAPALA*        N/A     64  63  97 NW3         N/A
LOWER KAHUKU*    N/A     61  59  94 N1          N/A
PUHE CS*       NOT AVBL
PUHO CS*         N/A     71  65  80 E2          N/A
PTA KEAMUKU*     N/A     55  48  76 SE5G10      N/A
WAIKOLOA*        N/A     63  57  82 SE2G8       N/A
$$

HIZ027>028-200700-
BIG ISLAND OF HAWAII INTERIOR AND SUMMMITS-

CITY           SKY/WX    TMP DP  RH WIND       PRES   REMARKS
BRADSHAW FIELD PTCLDY    49  43  79 W3        30.24R
MK VISITOR CEN   N/A     41  32  70 W9          N/A
MAUNA KEA*       N/A     25  23  93 SW54G72     N/A  WCI   3
MAUNA LOA*       N/A    N/A N/A N/A MISG        N/A
MAUNA LOA 1*   NOT AVBL
PTA KIPUKA*      N/A     54  52  94 NW3         N/A
PTA RANGE 17*    N/A     54  50  87 NW3         N/A
PTA WEST*        N/A     55  52  88 SE9         N/A
NENE CABIN*      N/A     50  45  81 NW3         N/A
AHUMOA*          N/A     51  41  68 SE8         N/A
PTA PORTABLE*  NOT AVBL
PUU MALI*        N/A     48 N/A N/A S5G10       N/A
$$

HIC003-200700-
NORTHWEST ISLANDS-

CITY           SKY/WX    TMP DP  RH WIND       PRES   REMARKS
MIDWAY ISLAND  MOCLDY    72  61  68 SE15      30.09R
MIDWAY NOS*      N/A     72 N/A N/A MISG      30.07R
FRENCH FRIGATE NOT AVBL
$$

PHZ110>124-180-200700-
BUOY REPORTS

STATION/POSITION TIME  TEMP    WIND        PRES    WAVE   SWELL
                       AIR SEA DIR/SP/G            HT/PER HT/DIR
                 (UTC) (F)     (DEG/KT/KT) (MB)    (FT/S) (FT/D)
BUOY 51001       0620   77 78   60/ 16/ 17 1011.3
BUOY 51101       0550   71 74   10/ 14/ 16 1015.2F   8/ 9   7/ 70
BUOY 51100       NOT AVBL
BUOY 51002       0620   77 77   60/ 12/ 14 1013.0
BUOY 51003       0550   75 77   60/ 12/ 14 1012.5R   7/15   7/320
BUOY 51004       0620   76 77   80/ 14/ 17 1013.7
WAIMEA BAY#      0602      72                N/A     6/14   3/310
MOKAPU POINT#    0604      74                N/A     6/ 9   3/ 20
LANAI#           NOT AVBL
BARBERS PT 2#    NOT AVBL
PAUWELA#         0600      76                N/A     8/10   3/ 70
HILO#            0627      76                N/A     7/ 9   3/ 50
KANEOHE BAY#     NOT AVBL
KANEOHE BAY 2#   NOT AVBL
HANALEI#         0622      75                N/A     7/ 9   3/310
KAHULUI HARBOR   0618          290/  5/  5   N/A
HONOLULU HARBOR  0618           40/  2/  3   N/A
PEARL HARBOR#    NOT AVBL
KILO NALU        NOT AVBL
HILO HARBOR      0618          230/  4/  5   N/A
MOKUOLOE         0536   69 75  220/  2/  3 1013.7R
NAWILIWILI       0618          250/  4/  5   N/A
WHOTS BUOY       NOT AVBL
BUOY 51028       NOT AVBL
$$

......................KEY........................................
  SKY/WX - SKY CONDITIONS/PRESENT WEATHER
  TMP    - TEMPERATURE IN FAHRENHEIT
  DWPT   - DEWPOINT IN FAHRENHEIT
  RH     - RELATIVE HUMIDITY IN PERCENT
  WIND   - DIRECTION AND SPEED /MPH FOR ISLANDS...KTS FOR BUOYS/
  PRES   - MEAN SEA LEVEL PRESSURE IN INCHES OF HG
  VSB    - VISIBILITY IN MILES
  HX     - HEAT INDEX
  WCI    - WIND CHILL INDEX
  VRB    - VARIABLE WIND DIRECTION
  N/A    - NOT AVAILABLE



USA.gov is the U.S. government's official web portal to all federal, state and local government web resources and services.